GW4489 Weather Reports


Display with metric or nautical units.
time (UTC)temp
F
wind
direction
speed
MPH
gust
MPH
rain 1hr
in
rain 24hr
in
rain mn
in
humidity
%
barometer
mb
20260905141010 77 232 0.0 1.0 0.00 0.00 0.00 92 1016.5
20260905140503 76 232 0.0 1.0 0.00 0.00 0.00 95 1016.5
20260905140004 76 232 0.0 0.0 0.00 0.00 0.00 95 1016.5
20260905135503 75 74 0.0 0.0 0.00 0.00 0.00 96 1016.6
20260905135004 75 74 0.0 0.0 0.00 0.00 0.00 96 1016.6
20260905134503 75 74 0.0 0.0 0.00 0.00 0.00 96 1016.6
20260905134005 74 74 0.0 0.0 0.00 0.00 0.00 96 1016.6
20260905133503 74 78 0.0 0.0 0.00 0.00 0.00 96 1016.6
20260905133011 74 69 0.0 0.0 0.00 0.00 0.00 96 1016.7
20260905132506 74 63 0.0 0.0 0.00 0.00 0.00 96 1016.7
20260905132010 74 63 0.0 0.0 0.00 0.00 0.00 96 1016.7
20260905131514 73 63 0.0 0.0 0.00 0.00 0.00 96 1016.8
20260905131009 73 63 0.0 0.0 0.00 0.00 0.00 96 1016.8
20260905130509 73 63 0.0 0.0 0.00 0.00 0.00 96 1016.8
20260905130024 73 63 0.0 0.0 0.00 0.00 0.00 96 1016.8
20260905125513 73 63 0.0 0.0 0.00 0.00 0.00 96 1016.8
20260905125003 73 43 0.0 0.0 0.00 0.00 0.00 96 1016.9
20260905124503 73 45 0.0 0.0 0.00 0.00 0.00 96 1016.9
20260905124002 73 45 0.0 0.0 0.00 0.00 0.00 96 1016.8
20260905123504 72 45 0.0 0.0 0.00 0.00 0.00 96 1016.8
20260905123008 72 192 0.0 0.0 0.00 0.00 0.00 96 1016.8
20260905122506 72 192 0.0 0.0 0.00 0.00 0.00 96 1016.7
20260905122006 72 192 0.0 0.0 0.00 0.00 0.00 96 1016.7
20260905121512 72 192 0.0 0.0 0.00 0.00 0.00 96 1016.7
20260905121007 72 192 0.0 0.0 0.00 0.00 0.00 96 1016.6
20260905120508 72 192 0.0 0.0 0.00 0.00 0.00 96 1016.5
20260905120015 72 192 0.0 0.0 0.00 0.00 0.00 95 1016.5
20260905115508 72 192 0.0 0.0 0.00 0.00 0.00 95 1016.4
20260905115010 71 192 0.0 0.0 0.00 0.00 0.00 95 1016.3
20260905114525 71 192 0.0 0.0 0.00 0.00 0.00 95 1016.3
20260905114013 71 192 0.0 0.0 0.00 0.00 0.00 95 1016.1
20260905113513 71 192 0.0 0.0 0.00 0.00 0.00 95 1016.0
20260905113008 71 192 0.0 0.0 0.00 0.00 0.00 95 1016.0
20260905112502 71 192 0.0 0.0 0.00 0.00 0.00 95 1016.0
20260905112003 71 192 0.0 0.0 0.00 0.00 0.00 94 1015.9
20260905111510 71 192 0.0 0.0 0.00 0.00 0.00 94 1015.9
20260905111003 71 192 0.0 0.0 0.00 0.00 0.00 94 1015.9
20260905110509 71 192 0.0 0.0 0.00 0.00 0.00 94 1015.8
20260905110016 71 192 0.0 0.0 0.00 0.00 0.00 94 1015.7
20260905105506 71 192 0.0 0.0 0.00 0.00 0.00 94 1015.7
20260905105010 71 192 0.0 0.0 0.00 0.00 0.00 94 1015.6
20260905104535 71 192 0.0 0.0 0.00 0.00 0.00 94 1015.6
20260905104011 71 192 0.0 0.0 0.00 0.00 0.00 93 1015.5
20260905103513 71 192 0.0 0.0 0.00 0.00 0.00 93 1015.5
20260905103032 71 192 0.0 0.0 0.00 0.00 0.00 93 1015.4
20260905102515 71 192 0.0 0.0 0.00 0.00 0.00 93 1015.3
20260905102015 71 192 0.0 0.0 0.00 0.00 0.00 93 1015.4
20260905101531 71 192 0.0 0.0 0.00 0.00 0.00 93 1015.3
20260905101003 71 192 0.0 0.0 0.00 0.00 0.00 92 1015.3
20260905100502 71 192 0.0 0.0 0.00 0.00 0.00 93 1015.3
20260905100011 71 192 0.0 0.0 0.00 0.00 0.00 93 1015.3
20260905095507 71 192 0.0 0.0 0.00 0.00 0.00 93 1015.3
20260905095007 71 192 0.0 0.0 0.00 0.00 0.00 92 1015.2
20260905094519 71 192 0.0 0.0 0.00 0.00 0.00 92 1015.2
20260905094009 71 192 0.0 0.0 0.00 0.00 0.00 92 1015.2
20260905093511 71 192 0.0 0.0 0.00 0.00 0.00 92 1015.2
20260905093024 71 192 0.0 0.0 0.00 0.00 0.00 92 1015.1
20260905092519 71 192 0.0 0.0 0.00 0.00 0.00 92 1015.1
20260905092014 72 192 0.0 0.0 0.00 0.00 0.00 92 1015.0
20260905091527 72 192 0.0 0.0 0.00 0.00 0.00 92 1015.0
20260905091017 72 192 0.0 0.0 0.00 0.00 0.00 92 1015.0
20260905090513 72 192 0.0 0.0 0.00 0.00 0.00 92 1015.0
20260905090033 72 192 0.0 0.0 0.00 0.00 0.00 92 1015.0
20260905085503 72 192 0.0 0.0 0.00 0.00 0.00 92 1015.0
20260905085006 72 192 0.0 0.0 0.00 0.00 0.00 92 1015.0
20260905084522 72 192 0.0 0.0 0.00 0.00 0.00 92 1015.1
20260905084009 72 192 0.0 0.0 0.00 0.00 0.00 92 1015.1
20260905083508 72 192 0.0 0.0 0.00 0.00 0.00 92 1015.1
20260905083023 72 192 0.0 0.0 0.00 0.00 0.00 92 1015.0
20260905082512 72 192 0.0 0.0 0.00 0.00 0.00 92 1015.1
20260905082012 72 192 0.0 0.0 0.00 0.00 0.00 92 1015.2
20260905081527 72 192 0.0 0.0 0.00 0.00 0.00 92 1015.3
20260905081016 73 192 0.0 0.0 0.00 0.00 0.00 92 1015.2
20260905080513 72 192 0.0 0.0 0.00 0.00 0.00 92 1015.2
20260905080045 72 192 0.0 0.0 0.00 0.00 0.00 92 1015.2
20260905075514 72 192 0.0 0.0 0.00 0.00 0.00 92 1015.3
20260905075017 72 192 0.0 0.0 0.00 0.00 0.00 92 1015.3
20260905074531 72 192 0.0 0.0 0.00 0.00 0.00 92 1015.3
20260905074017 72 192 0.0 0.0 0.00 0.00 0.00 92 1015.3
20260905073506 72 192 0.0 0.0 0.00 0.00 0.00 92 1015.5
20260905073034 73 192 0.0 0.0 0.00 0.00 0.00 92 1015.4
20260905072510 73 192 0.0 0.0 0.00 0.00 0.00 92 1015.5
20260905072009 73 192 0.0 0.0 0.00 0.00 0.00 92 1015.5
20260905071524 73 192 0.0 0.0 0.00 0.00 0.00 92 1015.5
20260905071011 72 192 0.0 0.0 0.00 0.00 0.00 91 1015.6
20260905070516 73 192 0.0 0.0 0.00 0.00 0.00 91 1015.6
20260905070004 73 192 0.0 0.0 0.00 0.00 0.00 91 1015.6
20260905065503 73 192 0.0 0.0 0.00 0.00 0.00 91 1015.6
20260905065003 73 192 0.0 0.0 0.00 0.00 0.00 91 1015.6
20260905064510 73 192 0.0 0.0 0.00 0.00 0.00 91 1015.6
20260905064006 73 192 0.0 0.0 0.00 0.00 0.00 91 1015.7
20260905063507 73 192 0.0 0.0 0.00 0.00 0.00 91 1015.7
20260905063003 73 192 0.0 0.0 0.00 0.00 0.00 91 1015.7
20260905062501 73 192 0.0 0.0 0.00 0.00 0.00 91 1015.8
20260905062005 73 192 0.0 0.0 0.00 0.00 0.00 91 1015.8
20260905061503 73 192 0.0 0.0 0.00 0.00 0.00 91 1015.8
20260905061002 73 192 0.0 0.0 0.00 0.00 0.00 91 1015.9
20260905060502 73 192 0.0 0.0 0.00 0.00 0.00 91 1016.0
20260905060003 73 192 0.0 0.0 0.00 0.00 0.00 91 1015.9
20260905055502 74 192 0.0 0.0 0.00 0.00 0.00 91 1015.9
20260905055002 74 192 0.0 0.0 0.00 0.00 0.00 90 1015.9
20260905054507 74 192 0.0 0.0 0.00 0.00 0.00 90 1016.0
20260905054003 74 192 0.0 0.0 0.00 0.00 0.00 90 1016.0
20260905053503 74 192 0.0 0.0 0.00 0.00 0.00 90 1016.0
20260905053019 74 192 0.0 0.0 0.00 0.00 0.00 90 1016.0
20260905052506 74 192 0.0 0.0 0.00 0.00 0.00 90 1016.0
20260905052006 74 192 0.0 0.0 0.00 0.00 0.00 90 1016.1
20260905051517 74 192 0.0 0.0 0.00 0.00 0.00 89 1016.1
20260905051002 74 192 0.0 2.0 0.00 0.00 0.00 89 1016.1
20260905050505 74 192 0.0 2.0 0.00 0.00 0.00 89 1016.1
20260905050007 75 192 0.0 1.0 0.00 0.00 0.00 89 1016.0
20260905045503 75 192 0.0 1.0 0.00 0.00 0.00 89 1016.0
20260905045002 75 192 0.0 1.0 0.00 0.00 0.00 89 1016.0
20260905044509 75 192 0.0 0.0 0.00 0.00 0.00 89 1016.0
20260905044004 75 192 0.0 1.0 0.00 0.00 0.00 89 1016.0
20260905043503 75 192 0.0 5.0 0.00 0.00 0.00 89 1016.0
20260905043008 75 192 1.0 5.0 0.00 0.00 0.00 89 1016.1
20260905042508 75 192 4.0 5.0 0.00 0.00 0.00 88 1016.1
20260905042006 75 192 2.0 4.0 0.00 0.00 0.00 88 1016.1
20260905041516 76 192 3.0 4.0 0.00 0.00 0.00 88 1016.1
20260905041007 76 192 0.0 0.0 0.00 0.00 0.00 87 1016.0
20260905040508 76 192 0.0 1.0 0.00 0.00 0.00 87 1015.9
20260905040028 76 192 0.0 2.0 0.00 0.00 0.00 87 1016.0
20260905035511 76 192 0.0 2.0 0.00 0.00 0.00 87 1016.1
20260905035003 76 192 0.0 1.0 0.00 0.00 0.00 87 1016.1
20260905034506 77 192 0.0 1.0 0.00 0.00 0.00 86 1016.2
20260905034003 77 192 0.0 2.0 0.00 0.00 0.00 86 1016.1
20260905033503 77 192 0.0 2.0 0.00 0.00 0.00 86 1016.1
20260905033006 77 192 1.0 2.0 0.00 0.00 0.00 86 1016.1
20260905032508 77 192 1.0 2.0 0.00 0.00 0.00 86 1016.2
20260905032005 77 192 0.0 1.0 0.00 0.00 0.00 86 1016.3
20260905031512 77 192 0.0 0.0 0.00 0.00 0.00 86 1016.4
20260905031003 77 192 0.0 1.0 0.00 0.00 0.00 85 1016.5
20260905030506 77 192 0.0 1.0 0.00 0.00 0.00 85 1016.6
20260905030016 77 192 0.0 1.0 0.00 0.00 0.00 85 1016.5
20260905025511 77 192 0.0 3.0 0.00 0.00 0.00 85 1016.5
20260905025012 78 192 0.0 3.0 0.00 0.00 0.00 85 1016.6
20260905024523 78 192 1.0 3.0 0.00 0.00 0.00 85 1016.7
20260905024014 78 192 1.0 3.0 0.00 0.00 0.00 84 1016.6
20260905023503 78 192 0.0 5.0 0.00 0.00 0.00 84 1016.6
20260905023004 79 192 2.0 5.0 0.00 0.00 0.00 84 1016.5
20260905022512 79 192 2.0 3.0 0.00 0.00 0.00 84 1016.3
20260905022002 79 192 2.0 3.0 0.00 0.00 0.00 83 1016.1
20260905021508 79 192 2.0 3.0 0.00 0.00 0.00 82 1016.2
20260905021005 80 286 0.0 0.0 0.00 0.00 0.00 82 1016.2
20260905020507 80 286 0.0 0.0 0.00 0.00 0.00 82 1016.2
20260905020013 80 286 0.0 0.0 0.00 0.00 0.00 82 1016.2
20260905015503 80 286 0.0 0.0 0.00 0.00 0.00 82 1016.2
20260905015006 80 286 0.0 0.0 0.00 0.00 0.00 82 1016.3
20260905014520 80 286 0.0 0.0 0.00 0.00 0.00 82 1016.3
20260905014012 80 286 0.0 0.0 0.00 0.00 0.00 81 1016.3
20260905013512 81 286 0.0 0.0 0.00 0.00 0.00 80 1016.3
20260905013028 81 286 0.0 0.0 0.00 0.00 0.00 80 1016.3
20260905012511 81 286 0.0 0.0 0.00 0.00 0.00 80 1016.3
20260905012014 81 286 0.0 0.0 0.00 0.00 0.00 79 1016.2
20260905011505 81 286 0.0 0.0 0.00 0.00 0.00 79 1016.2
20260905011002 81 286 0.0 0.0 0.00 0.00 0.00 80 1016.1
20260905010505 82 286 0.0 0.0 0.00 0.00 0.00 80 1016.0
20260905010016 82 286 0.0 0.0 0.00 0.00 0.00 80 1016.0
20260905005508 82 286 0.0 0.0 0.00 0.00 0.00 80 1016.0
20260905005006 82 286 0.0 0.0 0.00 0.00 0.00 80 1016.0
20260905004518 83 286 0.0 0.0 0.00 0.00 0.00 79 1016.0
20260905004010 83 286 0.0 0.0 0.00 0.00 0.00 80 1016.0
20260905003510 83 286 0.0 0.0 0.00 0.00 0.00 79 1016.0
20260905003024 83 286 0.0 2.0 0.00 0.00 0.00 78 1016.0
20260905002510 84 286 0.0 3.0 0.00 0.00 0.00 78 1016.0
20260905002013 84 286 1.0 3.0 0.00 0.00 0.00 78 1015.9
20260905001531 84 286 1.0 3.0 0.00 0.00 0.00 77 1015.8
20260905001014 84 285 0.0 2.0 0.00 0.00 0.00 76 1015.8
20260905000514 84 285 0.0 2.0 0.00 0.00 0.00 76 1015.7
20260905000034 84 285 1.0 3.0 0.00 0.00 0.00 76 1015.7
20260904235513 85 285 0.0 3.0 0.00 0.00 0.00 76 1015.7
20260904235005 85 285 0.0 2.0 0.00 0.00 0.00 76 1015.8
20260904234515 85 286 0.0 2.0 0.00 0.00 0.00 75 1015.8
20260904234007 85 286 0.0 3.0 0.00 0.00 0.00 75 1015.8
20260904233505 86 286 1.0 3.0 0.00 0.00 0.00 75 1015.7
20260904233019 86 285 2.0 3.0 0.00 0.00 0.00 73 1015.7
20260904232510 87 225 2.0 3.0 0.00 0.00 0.00 73 1015.6
20260904232016 88 225 1.0 2.0 0.00 0.00 0.00 69 1015.6
20260904231526 88 225 0.0 1.0 0.00 0.00 0.00 67 1015.5
20260904231012 89 225 0.0 0.0 0.00 0.00 0.00 66 1015.6
20260904230514 89 225 0.0 0.0 0.00 0.00 0.00 66 1015.6
20260904230030 90 225 0.0 1.0 0.00 0.00 0.00 64 1015.4
20260904225520 90 225 0.0 1.0 0.00 0.00 0.00 65 1015.3
20260904225013 91 213 0.0 0.0 0.00 0.00 0.00 66 1015.3
20260904224539 91 172 0.0 2.0 0.00 0.00 0.00 64 1015.3
20260904224007 91 172 0.0 2.0 0.00 0.00 0.00 64 1015.2
20260904223509 91 175 0.0 2.0 0.00 0.00 0.00 62 1015.2
20260904223017 91 173 0.0 2.0 0.00 0.00 0.00 62 1015.1
20260904222510 91 152 0.0 2.0 0.00 0.00 0.00 61 1015.2
20260904222009 92 150 0.0 3.0 0.00 0.00 0.00 59 1015.2
20260904221527 92 143 0.0 6.0 0.00 0.00 0.00 58 1015.2
20260904221013 92 146 2.0 6.0 0.00 0.00 0.00 57 1015.2
20260904220513 92 133 2.0 7.0 0.00 0.00 0.00 57 1015.2
20260904220005 93 121 3.0 8.0 0.00 0.00 0.00 56 1015.1
20260904215503 93 157 4.0 8.0 0.00 0.00 0.00 58 1015.1
20260904215002 93 102 4.0 8.0 0.00 0.00 0.00 56 1015.1
20260904214513 93 107 4.0 8.0 0.00 0.00 0.00 55 1015.0
20260904214003 93 122 4.0 7.0 0.00 0.00 0.00 57 1015.1
20260904213505 92 109 4.0 8.0 0.00 0.00 0.00 58 1015.2
20260904213013 92 125 4.0 10.0 0.00 0.00 0.00 57 1015.2
20260904212509 92 148 4.0 10.0 0.00 0.00 0.00 57 1015.3
20260904212007 93 115 5.0 11.0 0.00 0.00 0.00 56 1015.3
20260904211522 94 105 7.0 12.0 0.00 0.00 0.00 53 1015.2
20260904211014 93 102 8.0 12.0 0.00 0.00 0.00 55 1015.4
20260904210503 92 107 7.0 11.0 0.00 0.00 0.00 57 1015.4
20260904210003 92 119 8.0 12.0 0.00 0.00 0.00 56 1015.5
20260904205504 92 105 8.0 14.0 0.00 0.00 0.00 55 1015.5
20260904205002 93 93 8.0 14.0 0.00 0.00 0.00 55 1015.5
20260904204504 94 115 9.0 12.0 0.00 0.00 0.00 54 1015.6
20260904204002 95 122 7.0 12.0 0.00 0.00 0.00 51 1015.8
20260904203502 98 103 5.0 10.0 0.00 0.00 0.00 48 1015.7
20260904203010 98 360 6.0 10.0 0.00 0.00 0.00 47 1015.6
20260904202509 98 335 5.0 9.0 0.00 0.00 0.00 45 1015.7
20260904202005 99 333 3.0 8.0 0.00 0.00 0.00 47 1015.6
20260904201515 99 266 1.0 8.0 0.00 0.00 0.00 44 1015.5
20260904201005 99 266 2.0 8.0 0.00 0.00 0.00 43 1015.6
20260904200510 98 33 2.0 7.0 0.00 0.00 0.00 44 1015.6
20260904200023 98 9 3.0 7.0 0.00 0.00 0.00 44 1015.7
20260904195512 97 306 1.0 12.0 0.00 0.00 0.00 48 1015.8
20260904195011 97 279 3.0 12.0 0.00 0.00 0.00 45 1015.9
20260904194504 98 115 2.0 6.0 0.00 0.00 0.00 46 1016.1
20260904194005 98 347 1.0 7.0 0.00 0.00 0.00 47 1016.2
20260904193503 97 333 3.0 8.0 0.00 0.00 0.00 45 1016.3
20260904193003 98 5 4.0 8.0 0.00 0.00 0.00 46 1016.3
20260904192503 97 305 2.0 10.0 0.00 0.00 0.00 47 1016.4
20260904192006 97 281 4.0 10.0 0.00 0.00 0.00 47 1016.6
20260904191514 97 344 3.0 9.0 0.00 0.00 0.00 49 1016.6
20260904191007 95 315 2.0 8.0 0.00 0.00 0.00 50 1016.7
20260904190506 95 282 3.0 9.0 0.00 0.00 0.00 53 1016.8
20260904190015 95 288 3.0 11.0 0.00 0.00 0.00 51 1016.8
20260904185512 96 355 3.0 11.0 0.00 0.00 0.00 49 1016.9
20260904185011 97 15 6.0 11.0 0.00 0.00 0.00 48 1017.0
20260904184528 97 324 3.0 7.0 0.00 0.00 0.00 49 1017.0
20260904184011 96 202 2.0 7.0 0.00 0.00 0.00 48 1017.1
20260904183512 95 209 4.0 8.0 0.00 0.00 0.00 49 1017.2
20260904183029 96 191 4.0 8.0 0.00 0.00 0.00 50 1017.2
20260904182503 95 239 3.0 8.0 0.00 0.00 0.00 52 1017.3
20260904182008 96 252 4.0 9.0 0.00 0.00 0.00 48 1017.4
20260904181509 96 287 3.0 9.0 0.00 0.00 0.00 48 1017.5
20260904181003 96 27 5.0 9.0 0.00 0.00 0.00 48 1017.6
20260904180504 95 225 2.0 8.0 0.00 0.00 0.00 51 1017.6
20260904180014 95 311 2.0 8.0 0.00 0.00 0.00 52 1017.7
20260904175514 95 244 3.0 11.0 0.00 0.00 0.00 51 1017.8
20260904175010 95 226 2.0 11.0 0.00 0.00 0.00 53 1017.9
20260904174519 96 291 3.0 7.0 0.00 0.00 0.00 50 1017.9
20260904174008 95 273 2.0 7.0 0.00 0.00 0.00 50 1017.9
20260904173509 94 191 2.0 8.0 0.00 0.00 0.00 55 1018.0
20260904173037 93 5 2.0 8.0 0.00 0.00 0.00 56 1018.1
20260904172514 92 329 3.0 14.0 0.00 0.00 0.00 54 1018.2
20260904172012 93 333 6.0 14.0 0.00 0.00 0.00 55 1018.2
20260904171528 94 98 2.0 10.0 0.00 0.00 0.00 51 1018.2
20260904171015 95 343 3.0 10.0 0.00 0.00 0.00 52 1018.2
20260904170504 96 302 4.0 10.0 0.00 0.00 0.00 55 1018.3
20260904170015 95 19 2.0 7.0 0.00 0.00 0.00 54 1018.3
20260904165504 95 219 1.0 6.0 0.00 0.00 0.00 52 1018.4
20260904165007 94 323 2.0 6.0 0.00 0.00 0.00 52 1018.4
20260904164518 94 162 1.0 5.0 0.00 0.00 0.00 53 1018.5
20260904164007 94 340 2.0 7.0 0.00 0.00 0.00 53 1018.6
20260904163507 94 258 3.0 7.0 0.00 0.00 0.00 54 1018.6
20260904163019 94 342 1.0 6.0 0.00 0.00 0.00 52 1018.6
20260904162514 94 54 2.0 6.0 0.00 0.00 0.00 50 1018.6
20260904162012 94 270 1.0 8.0 0.00 0.00 0.00 54 1018.6
20260904161528 94 304 2.0 8.0 0.00 0.00 0.00 51 1018.6
20260904161014 94 338 3.0 5.0 0.00 0.00 0.00 54 1018.6
20260904160516 94 307 2.0 5.0 0.00 0.00 0.00 55 1018.6
20260904160032 94 308 2.0 5.0 0.00 0.00 0.00 56 1018.6
20260904155517 93 299 2.0 7.0 0.00 0.00 0.00 61 1018.6
20260904155018 92 196 3.0 7.0 0.00 0.00 0.00 59 1018.6
20260904154516 93 244 2.0 4.0 0.00 0.00 0.00 59 1018.7
20260904154007 92 311 2.0 4.0 0.00 0.00 0.00 58 1018.7
20260904153509 92 110 2.0 6.0 0.00 0.00 0.00 60 1018.7
20260904153020 91 202 4.0 6.0 0.00 0.00 0.00 60 1018.7
20260904152513 92 219 1.0 4.0 0.00 0.00 0.00 61 1018.7
20260904152009 93 219 0.0 4.0 0.00 0.00 0.00 60 1018.7
20260904151526 91 219 0.0 5.0 0.00 0.00 0.00 61 1018.6
20260904151014 91 217 2.0 5.0 0.00 0.00 0.00 60 1018.7
20260904150517 90 217 1.0 5.0 0.00 0.00 0.00 62 1018.7
20260904150035 90 212 3.0 5.0 0.00 0.00 0.00 64 1018.7
20260904145516 90 192 0.0 0.0 0.00 0.00 0.00 67 1018.7
20260904145013 90 196 0.0 0.0 0.00 0.00 0.00 66 1018.7
20260904144534 90 196 0.0 0.0 0.00 0.00 0.00 64 1018.7
20260904144019 90 196 0.0 0.0 0.00 0.00 0.00 67 1018.7
20260904143517 89 261 0.0 0.0 0.00 0.00 0.00 66 1018.6
20260904143015 88 263 0.0 0.0 0.00 0.00 0.00 66 1018.6
20260904142515 88 155 0.0 0.0 0.00 0.00 0.00 68 1018.5
20260904142008 87 155 0.0 0.0 0.00 0.00 0.00 70 1018.5
20260904141533 87 157 0.0 0.0 0.00 0.00 0.00 71 1018.5